GW5637 Weather Reports


time (UTC)temp
F
wind
direction
speed
knots
gust
knots
rain 1hr
in
rain 24hr
in
rain mn
in
humidity
%
barometer
mb
20260505080204 71 186 0.9 7.8 0.00 0.00 0.00 83 1004.4
20260505080003 71 165 0.9 7.8 0.00 0.00 0.00 83 1004.6
20260505075703 71 150 5.2 7.0 0.00 0.00 0.00 82 1004.7
20260505075403 71 204 0.9 8.7 0.00 0.00 0.00 82 1004.8
20260505075204 71 182 4.3 8.7 0.00 0.00 0.00 82 1004.7
20260505074704 71 256 5.2 8.7 0.00 0.00 0.00 82 1004.7
20260505074503 71 228 0.9 8.7 0.00 0.00 0.00 82 1005.0
20260505074203 71 210 4.3 7.8 0.00 0.00 0.00 81 1005.1
20260505073604 71 209 0.9 7.8 0.00 0.00 0.00 81 1005.4
20260505073204 71 187 1.7 7.8 0.00 0.00 0.00 81 1005.1
20260505072724 71 242 0.9 7.8 0.00 0.00 0.00 81 1005.4
20260505072704 71 221 2.6 7.8 0.00 0.00 0.00 81 1005.1
20260505072204 72 238 0.9 7.8 0.00 0.00 0.00 80 1005.1
20260505071803 72 233 0.9 7.0 0.00 0.00 0.00 80 1005.5
20260505071704 72 231 1.7 7.0 0.00 0.00 0.00 80 1005.1
20260505071204 72 198 2.6 8.7 0.00 0.00 0.00 80 1005.3
20260505070924 72 185 0.9 8.7 0.00 0.00 0.00 80 1005.4
20260505070704 72 181 7.0 8.7 0.00 0.00 0.00 80 1005.1
20260505070204 72 206 5.2 7.0 0.00 0.00 0.00 79 1005.4
20260505070024 72 190 0.9 7.0 0.00 0.00 0.00 79 1005.6
20260505065703 72 157 3.5 7.0 0.00 0.00 0.00 79 1005.5
20260505065403 72 192 0.9 7.0 0.00 0.00 0.00 79 1005.8
20260505065204 72 207 2.6 7.0 0.00 0.00 0.00 79 1005.4
20260505064703 72 144 1.7 7.8 0.00 0.00 0.00 78 1005.4
20260505064524 72 184 0.9 7.8 0.00 0.00 0.00 78 1005.7
20260505063704 72 250 6.1 7.0 0.00 0.00 0.00 78 1005.8
20260505063603 72 175 0.9 9.6 0.00 0.00 0.00 78 1005.9
20260505063203 72 151 6.1 8.7 0.00 0.00 0.00 78 1005.7
20260505062704 72 192 4.3 8.7 0.00 0.00 0.00 77 1005.8
20260505062203 72 262 1.7 8.7 0.00 0.00 0.00 77 1005.4
20260505061803 72 175 0.9 10.4 0.00 0.00 0.00 77 1005.8
20260505061204 72 208 2.6 10.4 0.00 0.00 0.00 77 1005.4
20260505060903 72 189 0.9 8.7 0.00 0.00 0.00 77 1005.7
20260505060703 72 181 2.6 8.7 0.00 0.00 0.00 76 1005.8
20260505060204 72 223 1.7 12.2 0.00 0.00 0.00 76 1005.8
20260505060003 72 206 0.9 12.2 0.00 0.00 0.00 76 1005.8
20260505055703 72 228 4.3 12.2 0.00 0.00 0.00 76 1005.8
20260505055425 72 198 0.9 8.7 0.00 0.00 0.00 76 1005.9
20260505055204 72 241 1.7 7.0 0.00 0.00 0.00 76 1005.8
20260505054704 73 172 1.7 7.0 0.00 0.00 0.00 75 1005.8
20260505054504 72 173 0.0 8.7 0.00 0.00 0.00 75 1006.1
20260505054204 73 180 1.7 8.7 0.00 0.00 0.00 75 1005.8
20260505053703 72 201 0.0 6.1 0.00 0.00 0.00 75 1006.1
20260505053625 72 180 0.0 7.0 0.00 0.00 0.00 75 1006.2
20260505053204 73 143 0.9 7.0 0.00 0.00 0.00 75 1006.1
20260505052703 72 178 0.9 9.6 0.00 0.00 0.00 74 1006.3
20260505052204 73 234 2.6 5.2 0.00 0.00 0.00 74 1006.1
20260505051804 72 196 0.9 8.7 0.00 0.00 0.00 74 1006.3
20260505051704 73 176 2.6 8.7 0.00 0.00 0.00 74 1006.1
20260505051203 73 178 5.2 8.7 0.00 0.00 0.00 74 1006.1
20260505050903 72 230 0.9 7.8 0.00 0.00 0.00 74 1006.3
20260505050704 73 192 4.3 7.8 0.00 0.00 0.00 74 1006.1
20260505050204 73 257 2.6 6.1 0.00 0.00 0.00 74 1006.0
20260505041704 73 199 1.7 7.8 0.00 0.00 0.00 71 1006.1
20260505040704 73 187 1.7 7.8 0.00 0.00 0.00 71 1006.3
20260505035704 74 138 1.7 10.4 0.00 0.00 0.00 71 1006.4
20260505035204 74 170 1.7 7.8 0.00 0.00 0.00 71 1006.2
20260505034704 74 199 1.7 7.8 0.00 0.00 0.00 71 1006.4
20260505034204 74 236 0.9 8.7 0.00 0.00 0.00 71 1006.4
20260505033704 73 220 2.6 8.7 0.00 0.00 0.00 71 1006.4
20260505032204 74 187 1.7 8.7 0.00 0.00 0.00 70 1006.5
20260505031704 74 224 2.6 8.7 0.00 0.00 0.00 70 1006.4
20260505031205 74 205 0.9 5.2 0.00 0.00 0.00 70 1006.4
20260505030704 74 169 2.6 6.1 0.00 0.00 0.00 70 1006.4
20260505030204 74 91 1.7 7.0 0.00 0.00 0.00 69 1006.4
20260505025704 74 208 1.7 4.3 0.00 0.00 0.00 69 1006.4
20260505024704 74 151 6.1 7.8 0.00 0.00 0.00 69 1006.4
20260505024503 74 146 0.9 7.8 0.00 0.00 0.00 69 1006.6
20260505024204 74 43 0.0 4.3 0.00 0.00 0.00 69 1006.5
20260505023704 74 298 0.9 6.1 0.00 0.00 0.00 69 1006.4
20260505023604 74 254 0.0 6.1 0.00 0.00 0.00 69 1006.7
20260505023203 74 246 0.0 6.1 0.00 0.00 0.00 68 1006.4
20260505022704 74 217 0.9 6.1 0.00 0.00 0.00 68 1006.5
20260505021803 74 210 0.9 7.0 0.00 0.00 0.00 68 1006.6
20260505021203 75 212 1.7 7.0 0.00 0.00 0.00 67 1006.2
20260505020904 75 193 0.9 7.0 0.00 0.00 0.00 67 1006.5
20260505020704 75 205 1.7 6.1 0.00 0.00 0.00 67 1006.1
20260505020205 75 161 2.6 5.2 0.00 0.00 0.00 67 1006.1
20260505020004 75 190 0.9 7.0 0.00 0.00 0.00 67 1006.5
20260505015704 75 225 5.2 7.0 0.00 0.00 0.00 66 1006.3
20260505015425 75 173 0.9 7.0 0.00 0.00 0.00 66 1006.3
20260505015204 75 153 3.5 7.0 0.00 0.00 0.00 66 1006.1
20260505014704 75 148 4.3 6.1 0.00 0.00 0.00 66 1006.1
20260505014524 75 146 0.9 6.1 0.00 0.00 0.00 66 1006.5
20260505014204 75 208 1.7 6.1 0.00 0.00 0.00 66 1006.1
20260505013703 75 122 2.6 5.2 0.00 0.00 0.00 66 1006.1
20260505013603 75 174 0.9 5.2 0.00 0.00 0.00 66 1006.5
20260505013205 75 210 0.9 5.2 0.00 0.00 0.00 65 1006.1
20260505012725 76 190 0.9 5.2 0.00 0.00 0.00 65 1006.4
20260505012704 76 230 1.7 6.1 0.00 0.00 0.00 65 1006.1
20260505012204 76 152 2.6 7.0 0.00 0.00 0.00 65 1006.1
20260505011804 76 234 0.9 7.0 0.00 0.00 0.00 65 1006.4
20260505011704 76 245 1.7 7.0 0.00 0.00 0.00 65 1006.1
20260505011204 76 248 1.7 8.7 0.00 0.00 0.00 64 1006.1
20260505010903 76 228 0.9 8.7 0.00 0.00 0.00 64 1006.3
20260505010704 76 188 4.3 8.7 0.00 0.00 0.00 64 1006.1
20260505010204 76 263 1.7 7.8 0.00 0.00 0.00 63 1006.0
20260505010004 76 209 0.9 8.7 0.00 0.00 0.00 63 1006.4
20260505005704 76 232 4.3 7.8 0.00 0.00 0.00 63 1005.8
20260505005403 76 196 1.7 8.7 0.00 0.00 0.00 63 1006.5
20260505005204 77 185 6.1 7.8 0.00 0.00 0.00 62 1006.1
20260505004704 77 210 8.7 8.7 0.00 0.00 0.00 62 1006.1
20260505004524 77 203 0.9 8.7 0.00 0.00 0.00 62 1006.4
20260505004206 77 155 5.2 8.7 0.00 0.00 0.00 62 1005.8
20260505003704 77 246 0.0 7.8 0.00 0.00 0.00 62 1006.1
20260505003624 77 185 0.9 8.7 0.00 0.00 0.00 62 1006.5
20260505003204 77 184 2.6 8.7 0.00 0.00 0.00 61 1006.1
20260505002704 78 164 0.9 9.6 0.00 0.00 0.00 61 1006.2
20260505001804 78 179 0.9 7.8 0.00 0.00 0.00 60 1006.6
20260505001704 78 175 2.6 7.8 0.00 0.00 0.00 60 1006.2
20260505001204 78 186 2.6 10.4 0.00 0.00 0.00 59 1006.4
20260505000903 78 227 0.9 9.6 0.00 0.00 0.00 59 1006.5
20260505000704 79 232 1.7 10.4 0.00 0.00 0.00 59 1006.1
20260505000204 79 244 1.7 8.7 0.00 0.00 0.00 58 1006.1
20260505000004 79 220 0.9 8.7 0.00 0.00 0.00 58 1006.7
20260504235704 79 211 4.3 8.7 0.00 0.00 0.00 57 1006.1
20260504235204 79 231 4.3 7.8 0.00 0.00 0.00 58 1006.1
20260504234705 79 256 2.6 7.0 0.00 0.00 0.00 59 1006.8
20260504234204 79 257 1.7 8.7 0.00 0.00 0.00 59 1006.1
20260504233704 79 210 2.6 10.4 0.00 0.00 0.00 58 1006.1
20260504233203 79 176 2.6 8.7 0.00 0.00 0.00 58 1006.1
20260504232204 79 174 4.3 8.7 0.00 0.00 0.00 57 1006.1
20260504231704 80 156 7.8 13.0 0.00 0.00 0.00 57 1006.4
20260504231204 80 147 1.7 11.3 0.00 0.00 0.00 56 1006.4
20260504230704 81 233 4.3 8.7 0.00 0.00 0.00 55 1006.4
20260504230203 81 162 4.3 8.7 0.00 0.00 0.00 54 1006.4
20260504225704 81 245 2.6 8.7 0.00 0.00 0.00 56 1006.8
20260504225204 81 172 2.6 11.3 0.00 0.00 0.00 56 1006.8
20260504224704 81 226 3.5 11.3 0.00 0.00 0.00 55 1006.8
20260504224204 81 256 0.9 7.0 0.00 0.00 0.00 55 1006.8
20260504223704 81 246 2.6 8.7 0.00 0.00 0.00 54 1006.8
20260504223204 81 178 4.3 10.4 0.00 0.00 0.00 54 1006.4
20260504222704 82 195 4.3 6.1 0.00 0.00 0.00 54 1006.4
20260504222204 81 182 4.3 10.4 0.00 0.00 0.00 54 1006.6
20260504221704 81 201 3.5 8.7 0.00 0.00 0.00 55 1006.8
20260504221204 81 244 2.6 7.8 0.00 0.00 0.00 55 1006.8
20260504220704 81 172 4.3 7.8 0.00 0.00 0.00 54 1006.8
20260504220204 82 160 5.2 7.8 0.00 0.00 0.00 53 1006.8
20260504215205 82 181 5.2 6.1 0.00 0.00 0.00 52 1006.8
20260504214704 82 165 2.6 7.8 0.00 0.00 0.00 54 1007.1
20260504214204 82 245 5.2 11.3 0.00 0.00 0.00 53 1007.5
20260504213603 81 165 0.9 11.3 0.00 0.00 0.00 53 1007.9
20260504213204 82 153 5.2 7.8 0.00 0.00 0.00 53 1007.5
20260504212704 82 169 6.1 8.7 0.00 0.00 0.00 53 1007.4
20260504212204 82 233 1.7 8.7 0.00 0.00 0.00 53 1007.5
20260504211804 81 210 0.9 7.8 0.00 0.00 0.00 54 1008.1
20260504211704 82 220 4.3 7.8 0.00 0.00 0.00 53 1007.8
20260504211203 82 177 1.7 7.0 0.00 0.00 0.00 53 1007.8
20260504210903 82 204 0.9 6.1 0.00 0.00 0.00 53 1008.4
20260504210704 82 212 3.5 6.1 0.00 0.00 0.00 52 1007.8
20260504210204 82 159 5.2 11.3 0.00 0.00 0.00 53 1007.8
20260504210004 82 212 0.9 11.3 0.00 0.00 0.00 53 1008.5
20260504205704 82 230 4.3 11.3 0.00 0.00 0.00 52 1008.0
20260504205403 82 215 0.9 11.3 0.00 0.00 0.00 52 1008.6
20260504204704 82 214 2.6 7.0 0.00 0.00 0.00 53 1008.1
20260504204503 82 193 0.9 10.4 0.00 0.00 0.00 53 1008.8
20260504204204 82 172 4.3 11.3 0.00 0.00 0.00 51 1008.1
20260504203624 82 226 0.9 13.0 0.00 0.00 0.00 52 1009.0
20260504203204 82 262 6.1 13.0 0.00 0.00 0.00 50 1008.5
20260504202704 82 217 2.6 11.3 0.00 0.00 0.00 52 1008.5
20260504202205 82 172 4.3 11.3 0.00 0.00 0.00 50 1008.5
20260504201803 82 207 0.9 10.4 0.00 0.00 0.00 49 1009.4
20260504201703 82 220 4.3 7.0 0.00 0.00 0.00 50 1008.8
20260504201204 82 244 5.2 10.4 0.00 0.00 0.00 50 1008.8
20260504200903 82 197 0.9 13.9 0.00 0.00 0.00 49 1009.6
20260504200704 82 170 4.3 13.9 0.00 0.00 0.00 50 1009.1
20260504200004 81 202 0.9 13.9 0.00 0.00 0.00 49 1009.7
20260504195704 81 206 4.3 11.3 0.00 0.00 0.00 49 1009.1
20260504195404 81 209 0.9 7.8 0.00 0.00 0.00 50 1009.6
20260504195204 81 168 4.3 7.0 0.00 0.00 0.00 51 1009.1
20260504194524 81 225 0.9 9.6 0.00 0.00 0.00 49 1010.0
20260504194204 81 167 4.3 8.7 0.00 0.00 0.00 49 1009.5
20260504193704 81 286 1.7 8.7 0.00 0.00 0.00 50 1009.1
20260504193604 81 204 0.9 11.3 0.00 0.00 0.00 50 1009.9
20260504193204 80 203 3.5 11.3 0.00 0.00 0.00 52 1009.6
20260504192704 80 154 2.6 11.3 0.00 0.00 0.00 52 1009.5
20260504192204 80 174 1.7 10.4 0.00 0.00 0.00 51 1009.8
20260504191824 81 245 0.9 8.7 0.00 0.00 0.00 49 1010.5
20260504191703 81 245 1.7 7.8 0.00 0.00 0.00 50 1009.8
20260504191205 81 251 2.6 8.7 0.00 0.00 0.00 51 1009.8
20260504190903 81 190 0.9 10.4 0.00 0.00 0.00 49 1010.6
20260504190705 81 169 4.3 11.3 0.00 0.00 0.00 49 1009.8
20260504190204 80 173 7.8 12.2 0.00 0.00 0.00 49 1010.0
20260504190004 81 216 1.7 11.3 0.00 0.00 0.00 47 1010.6
20260504185703 81 205 6.1 12.2 0.00 0.00 0.00 48 1010.2
20260504185403 81 226 0.9 8.7 0.00 0.00 0.00 47 1010.8
20260504185204 81 248 1.7 7.0 0.00 0.00 0.00 49 1009.8
20260504184704 80 152 3.5 7.0 0.00 0.00 0.00 47 1010.0
20260504184503 80 251 0.9 8.7 0.00 0.00 0.00 47 1010.4
20260504184204 80 281 4.3 8.7 0.00 0.00 0.00 49 1010.2
20260504183703 79 254 2.6 7.8 0.00 0.00 0.00 50 1010.2
20260504183603 79 215 0.9 12.2 0.00 0.00 0.00 50 1010.7
20260504182724 80 209 0.9 12.2 0.00 0.00 0.00 46 1011.0
20260504182703 80 204 5.2 12.2 0.00 0.00 0.00 46 1010.5
20260504182204 79 206 2.6 5.2 0.00 0.00 0.00 49 1010.5
20260504181803 78 247 0.9 7.0 0.00 0.00 0.00 48 1011.2
20260504181704 78 216 4.3 7.0 0.00 0.00 0.00 48 1010.8
20260504180704 79 234 2.6 13.0 0.00 0.00 0.00 45 1010.8
20260504180204 79 197 3.5 13.0 0.00 0.00 0.00 48 1010.8
20260504175703 78 232 6.1 8.7 0.00 0.00 0.00 49 1010.8
20260504175204 78 200 0.9 8.7 0.00 0.00 0.00 52 1011.2
20260504174705 78 222 4.3 11.3 0.00 0.00 0.00 50 1011.2
20260504174204 77 190 2.6 11.3 0.00 0.00 0.00 49 1011.2
20260504173703 78 178 2.6 10.4 0.00 0.00 0.00 48 1011.4
20260504173204 77 138 3.5 8.7 0.00 0.00 0.00 49 1011.5
20260504172703 77 176 2.6 10.4 0.00 0.00 0.00 47 1011.9
20260504172204 76 161 1.7 10.4 0.00 0.00 0.00 48 1011.9
20260504171703 77 153 0.9 10.4 0.00 0.00 0.00 48 1011.9
20260504170703 77 201 4.3 10.4 0.00 0.00 0.00 48 1012.2
20260504170204 76 212 7.0 12.2 0.00 0.00 0.00 47 1012.2
20260504160204 74 255 0.0 13.0 0.00 0.00 0.00 52 1012.9
20260504150903 72 185 1.7 10.4 0.00 0.00 0.00 56 1013.5
20260504150704 71 166 9.6 11.3 0.00 0.00 0.00 56 1013.2
20260504150204 71 225 2.6 6.1 0.00 0.00 0.00 58 1013.2
20260504141204 68 237 6.1 13.0 0.00 0.00 0.00 64 1013.5
20260504140903 68 207 0.9 12.2 0.00 0.00 0.00 64 1013.8
20260504140704 68 177 1.7 7.8 0.00 0.00 0.00 64 1013.5
20260504140204 68 197 2.6 8.7 0.00 0.00 0.00 64 1013.5
20260504130704 65 121 1.7 7.0 0.00 0.00 0.00 70 1013.9
20260504130204 65 172 1.7 5.2 0.00 0.00 0.00 70 1013.9
20260504120204 62 217 1.7 7.0 0.00 0.00 0.00 69 1013.9
20260504110704 62 245 1.7 5.2 0.00 0.00 0.00 72 1013.5
20260504110204 62 210 0.9 4.3 0.00 0.00 0.00 72 1013.5
20260504081703 64 188 1.7 4.3 0.00 0.00 0.00 58 1014.2
20260504081204 65 187 0.9 4.3 0.00 0.00 0.00 58 1014.2